Weather History for Wittering, United Kingdom

Change the Weather History Date:

Monday, January 7, 2013

  Actual Average Record
Temperature  
Mean Temperature 46 °F -  
Max Temperature 48 °F 42 °F 55 °F (2005)
Min Temperature 44 °F 34 °F 23 °F (1997)
Degree Days  
Heating Degree Days 19    
Moisture  
Dew Point 44 °F    
Average Humidity 92    
Maximum Humidity 100    
Minimum Humidity 84    
Precipitation  
Precipitation 0.00 in - - ()
Sea Level Pressure  
Sea Level Pressure 30.24 in    
Wind  
Wind Speed 9 mph ()    
Max Wind Speed 14 mph    
Max Gust Speed -    
Visibility 6.1 miles    
Events      
Averages and records for this station are not official NWS values.
T = Trace of Precipitation, MM = Missing Value Source: Averaged Metar Reports

Daily Weather History Graph

Daily Weather History Graph

Search for Another Location

Airport:

Trip Planner

Search our weather history database for the weather conditions in past years. The results will help you decide how hot, cold, wet, or windy it might be!

Date:

Astronomy

Jan. 07, 2013 Rise Set
Actual Time 8:11 AM GMT 4:05 PM GMT
Civil Twilight 7:30 AM GMT 4:46 PM GMT
Nautical Twilight 6:46 AM GMT 5:30 PM GMT
Astronomical Twilight 6:05 AM GMT 6:11 PM GMT
Moon 3:06 AM GMT (1/7) 12:14 PM GMT (1/7)
Length of Visible Light 9h 15m
Length of Day
7h 54m
Waning Crescent, 25% of the Moon is Illuminated
Jan 7
Waning Crescent
Jan 11
New
Jan 18
First Quarter
Jan 27
Full
Feb 3
Last Quarter

Hourly Weather History & Observations

Time (GMT) Temp. Windchill Dew Point Humidity Pressure Visibility Wind Dir Wind Speed Gust Speed Precip Events Conditions
12:50 AM 46.4 °F 42.9 °F 44.6 °F 93% 30.33 in 5.6 mi South 6.9 mph - N/A   Overcast
1:50 AM 46.4 °F 41.9 °F 44.6 °F 93% 30.33 in 6.2 mi SSW 9.2 mph - N/A   Overcast
2:50 AM 46.4 °F 41.5 °F 44.6 °F 93% 30.30 in 6.2 mi SSW 10.4 mph - N/A   Overcast
3:50 AM 46.4 °F 41.5 °F 44.6 °F 93% 30.30 in 5.6 mi South 10.4 mph - N/A   Overcast
4:50 AM 46.4 °F 41.1 °F 44.6 °F 93% 30.27 in 6.2 mi South 11.5 mph - N/A   Mostly Cloudy
5:50 AM 45 °F - 44 °F 95% 30.29 in 5 mi SSW 9.2 mph - -   Mist
5:50 AM 44.6 °F 39.7 °F 44.6 °F 100% 30.27 in 5.0 mi SSW 9.2 mph - N/A   Mostly Cloudy
6:50 AM 44.6 °F 39.2 °F 44.6 °F 100% 30.27 in 5.0 mi SSW 10.4 mph - N/A   Overcast
7:50 AM 44.6 °F 39.7 °F 42.8 °F 93% 30.27 in 6.2 mi SSW 9.2 mph - N/A   Overcast
8:50 AM 46 °F - 44 °F 89% 30.30 in 6 mi SSW 10.4 mph - -   Scattered Clouds
8:50 AM 46.4 °F 41.5 °F 44.6 °F 93% 30.27 in 6.2 mi SSW 10.4 mph - N/A   Overcast
9:50 AM 46.4 °F 41.9 °F 44.6 °F 93% 30.27 in 5.6 mi SSW 9.2 mph - N/A   Mostly Cloudy
10:50 AM 46.4 °F 41.5 °F 44.6 °F 93% 30.27 in 6.2 mi SSW 10.4 mph - N/A   Mostly Cloudy
11:50 AM 47 °F - 45 °F 89% 30.26 in 9 mi SSW 11.5 mph - -   Scattered Clouds
11:50 AM 46.4 °F 41.1 °F 44.6 °F 93% 30.24 in 6.2 mi SSW 11.5 mph - N/A   Mostly Cloudy
12:50 PM 48.2 °F - 44.6 °F 87% 30.21 in 6.2 mi SSW 13.8 mph - N/A   Mostly Cloudy
1:50 PM 48.2 °F - 44.6 °F 87% 30.21 in 6.2 mi SW 12.7 mph - N/A   Mostly Cloudy
2:50 PM 48 °F - 45 °F 84% 30.23 in 16 mi SW 11.5 mph - -   Mostly Cloudy
2:50 PM 48.2 °F - 44.6 °F 87% 30.21 in 6.2 mi SW 11.5 mph - N/A   Mostly Cloudy
3:50 PM 48.2 °F - 44.6 °F 87% 30.21 in 6.2 mi SSW 9.2 mph - N/A   Scattered Clouds
4:50 PM 46.4 °F 41.9 °F 44.6 °F 93% 30.21 in 6.2 mi SSW 9.2 mph - N/A   Mostly Cloudy
5:50 PM 46 °F - 45 °F 93% 30.22 in 7 mi SSW 10.4 mph - -   Scattered Clouds
5:50 PM 46.4 °F 41.5 °F 44.6 °F 93% 30.21 in 6.2 mi SSW 10.4 mph - N/A   Mostly Cloudy
6:50 PM 46.4 °F 41.5 °F 44.6 °F 93% 30.18 in 6.2 mi SSW 10.4 mph - N/A   Mostly Cloudy
7:50 PM 46.4 °F 41.5 °F 44.6 °F 93% 30.21 in 4.3 mi SSW 10.4 mph - N/A   Partly Cloudy
8:50 PM 46 °F - 44 °F 92% 30.21 in 5 mi SSW 12.7 mph - -   Mist
8:50 PM 46.4 °F 40.7 °F 44.6 °F 93% 30.18 in 5.0 mi SSW 12.7 mph - N/A   Partly Cloudy
9:50 PM 44.6 °F 38.8 °F 44.6 °F 100% 30.18 in 4.3 mi SW 11.5 mph - N/A   Mist
10:50 PM 44.6 °F 38.8 °F 42.8 °F 93% 30.18 in 5.0 mi SW 11.5 mph - N/A   Mist
11:50 PM 45 °F - 43 °F 92% 30.20 in 5 mi SW 10.4 mph - -   Light Haze
11:50 PM 44.6 °F 39.2 °F 42.8 °F 93% 30.18 in 5.0 mi SW 10.4 mph - N/A   Haze